Home   Weather   Schwabach   Past weeks

Flag for Germany Past Weather in Schwabach, Bavaria, Germany — Yesterday and Last 2 Weeks

Now
28 °F

Clear.


Feels Like: 23 °F
Forecast: 12 / 24 °F
Wind: 5 mph from East

Location: Nuernberg

Current Time: Jan 20, 2017 at 7:40:25 pm

Latest Report: Jan 20, 2017 at 6:50 pm


Visibility: 10 mi

Pressure: 30.45 "Hg

Humidity: 37%

Dew Point: 5 °F

Location of SchwabachLocation

Past Weather in Schwabach — Graph

°F

Schwabach Temperature Yesterday

Maximum temperature yesterday: 34 °F (at 2:50 pm)
Minimum temperature yesterday: 7 °F (at 6:20 am)
Average temperature yesterday: 19 °F

High & Low Weather Summary for the Past Weeks

 TemperatureHumidityPressure
High41 °F (Jan 13, 5:50 am)100% (Jan 7, 11:50 pm)30.72 "Hg (Jan 7, 11:50 pm)
Low1 °F (Jan 7, 2:50 am)26% (Jan 20, 1:50 pm)29.27 "Hg (Jan 13, 2:20 am)
Average26 °F82%30.20 "Hg
* Reported Jan 5 6:20 pm — Jan 20 6:50 pm, Schwabach, Weather by CustomWeather, © 2017

Note: Actual official high and low records may vary slightly from our data, if they occured in-between our weather recording intervals... More about our weather records

Advertising

Schwabach Weather History for the Previous 24 Hours

Scroll right to see more
 ConditionsComfort  
Time TempWeatherWind HumidityBarometerVisibility
6:50 pm
Fri, Jan 20
28 °FClear.5 mph37%30.45 "Hg10 mi
6:20 pm32 °FPassing clouds.3 mph27%30.45 "HgN/A
5:50 pm32 °FClear.3 mph29%30.45 "Hg10 mi
5:20 pm30 °FClear.1 mph31%30.45 "Hg10 mi
4:50 pm34 °FSunny.2 mph27%30.45 "Hg10 mi
4:20 pm36 °FPassing clouds.5 mph27%30.45 "HgN/A
3:50 pm37 °FPassing clouds.7 mph26%30.45 "HgN/A
3:20 pm37 °FPassing clouds.7 mph26%30.45 "HgN/A
2:50 pm37 °FPassing clouds.8 mph26%30.45 "HgN/A
2:20 pm37 °FPassing clouds.9 mph26%30.45 "HgN/A
1:50 pm37 °FSunny.10 mph26%30.45 "Hg10 mi
1:20 pm37 °FPassing clouds.9 mph28%30.48 "HgN/A
12:50 pm34 °FPassing clouds.7 mph38%30.48 "HgN/A
12:20 pm30 °FPassing clouds.7 mph43%30.48 "HgN/A
11:50 am28 °FSunny.3 mph51%30.48 "Hg10 mi
11:20 am27 °FPassing clouds.5 mph54%30.51 "HgN/A
10:50 am23 °FPassing clouds.3 mph68%30.51 "HgN/A
10:20 am21 °FSunny.2 mph68%30.51 "Hg10 mi
9:50 am18 °FSunny.2 mph73%30.51 "Hg10 mi
9:20 am14 °FSunny.No wind79%30.51 "Hg10 mi
8:50 am12 °FSunny.1 mph85%30.51 "Hg10 mi
8:20 am9 °FSunny.No wind92%30.51 "Hg10 mi
7:50 am10 °FClear.3 mph85%30.51 "Hg10 mi
7:20 am10 °FClear.2 mph85%30.51 "Hg10 mi
6:50 am12 °FClear.2 mph79%30.51 "Hg10 mi
6:20 am12 °FClear.No wind85%30.51 "Hg10 mi
5:50 am10 °FClear.No wind85%30.51 "Hg10 mi
5:20 am14 °FClear.1 mph79%30.51 "Hg10 mi
4:50 am12 °FClear.2 mph85%30.51 "Hg10 mi
4:20 am12 °FPassing clouds.3 mph85%30.51 "HgN/A
3:50 am14 °FClear.No wind79%30.51 "Hg10 mi
3:20 am14 °FClear.No wind79%30.51 "Hg10 mi
2:50 am12 °FPassing clouds.3 mph85%30.51 "HgN/A
2:20 am16 °FClear.No wind73%30.51 "Hg10 mi
1:50 am16 °FClear.2 mph73%30.51 "Hg10 mi
1:20 am16 °FClear.2 mph79%30.51 "Hg10 mi
12:50 am18 °FClear.No wind73%30.51 "Hg10 mi
12:20 am16 °FClear.1 mph79%30.54 "Hg10 mi
11:50 pm
Thu, Jan 19
18 °FPassing clouds.3 mph68%30.54 "HgN/A
11:20 pm18 °FClear.No wind73%30.54 "Hg10 mi
10:50 pm18 °FClear.1 mph79%30.54 "Hg10 mi
10:20 pm19 °FClear.2 mph73%30.54 "Hg10 mi
9:50 pm19 °FClear.1 mph73%30.54 "Hg10 mi
9:20 pm23 °FClear.No wind58%30.54 "Hg10 mi
8:50 pm23 °FClear.No wind63%30.54 "Hg10 mi
8:20 pm23 °FClear.1 mph63%30.54 "Hg10 mi
7:50 pm27 °FClear.2 mph54%30.54 "Hg10 mi
7:20 pm27 °FPassing clouds.5 mph54%30.51 "HgN/A
Weather by CustomWeather, © 2017

See weather overviewHow to use our weather pages